Corpus Christi, TX

2:43 PM CST on February 19, 2018 (GMT -0600)
Corpus Christi International

Weather History for KCRP - April, 2012

Change the Weather History Date:

Tuesday, April 10, 2012

  Actual Average Record
Temperature  
Mean Temperature 74 °F 71 °F  
Max Temperature 85 °F 81 °F 92 °F (1984)
Min Temperature 63 °F 62 °F 41 °F (2003)
Degree Days  
Heating Degree Days 0 1  
Month to date heating degree days 0 10  
Since 1 July heating degree days 611 891  
Cooling Degree Days 9 7  
Month to date cooling degree days 135 64  
Year to date cooling degree days 538 255  
Growing Degree Days 24 (Base 50)    
Moisture  
Dew Point 60 °F    
Average Humidity 65    
Maximum Humidity 87    
Minimum Humidity 43    
Precipitation  
Precipitation 0.00 in 0.06 in 1.46 in (1985)
Month to date precipitation 0.41 0.54  
Year to date precipitation 6.30 5.90  
Snow  
Snow 0.00 in - - ()
Month to date snowfall 0.0  
Since 1 July snowfall 0.0  
Snow Depth 0.00 in    
Sea Level Pressure  
Sea Level Pressure 30.07 in    
Wind  
Wind Speed 8 mph (ESE)    
Max Wind Speed 20 mph    
Max Gust Speed 25 mph    
Visibility 10 miles    
Events      
T = Trace of Precipitation, MM = Missing Value Source: NWS Daily Summary

Daily Weather History Graph

Daily Weather History Graph

Search for Another Location

Airport or City:

Trip Planner

Search our weather history database for the weather conditions in past years. The results will help you decide how hot, cold, wet, or windy it might be!

Date:

Astronomy

Apr. 10, 2012 Rise Set
Actual Time 7:09 AM CDT 7:52 PM CDT
Civil Twilight 6:46 AM CDT 8:16 PM CDT
Nautical Twilight 6:18 AM CDT 8:44 PM CDT
Astronomical Twilight 5:49 AM CDT 9:13 PM CDT
Moon No Moon Rise 10:16 AM CDT (4/10)
Length of Visible Light 13h 30m
Length of Day
12h 42m
Waning Gibbous, 79% of the Moon is Illuminated
Apr 10
Waning Gibbous
Apr 13
Last Quarter
Apr 21
New
Apr 29
First Quarter
May 5
Full

Hourly Weather History & Observations

Time (CDT) Temp. Heat Index Dew Point Humidity Pressure Visibility Wind Dir Wind Speed Gust Speed Precip Events Conditions
12:51 AM 64.9 °F - 57.9 °F 78% 30.07 in 10.0 mi Calm Calm - N/A   Partly Cloudy
1:51 AM 64.9 °F - 59.0 °F 81% 30.06 in 10.0 mi SE 3.5 mph - N/A   Partly Cloudy
2:51 AM 63.0 °F - 57.0 °F 81% 30.06 in 10.0 mi Calm Calm - N/A   Partly Cloudy
3:51 AM 63.0 °F - 57.0 °F 81% 30.06 in 10.0 mi Calm Calm - N/A   Partly Cloudy
4:51 AM 63.0 °F - 57.9 °F 84% 30.06 in 10.0 mi Calm Calm - N/A   Partly Cloudy
5:51 AM 66.0 °F - 61.0 °F 84% 30.07 in 10.0 mi ENE 3.5 mph - N/A   Partly Cloudy
6:51 AM 64.0 °F - 59.0 °F 84% 30.09 in 10.0 mi Calm Calm - N/A   Partly Cloudy
7:51 AM 66.9 °F - 62.1 °F 84% 30.11 in 10.0 mi Calm Calm - N/A   Partly Cloudy
8:51 AM 73.9 °F - 63.0 °F 68% 30.10 in 10.0 mi ESE 6.9 mph - N/A   Partly Cloudy
9:51 AM 77.0 °F - 61.0 °F 58% 30.11 in 10.0 mi ESE 10.4 mph - N/A   Scattered Clouds
10:51 AM 79.0 °F - 59.0 °F 50% 30.11 in 10.0 mi SE 9.2 mph 18.4 mph N/A   Scattered Clouds
11:51 AM 80.1 °F 80.6 °F 57.9 °F 47% 30.12 in 10.0 mi East 10.4 mph - N/A   Mostly Cloudy
12:51 PM 82.9 °F 82.8 °F 59.0 °F 44% 30.10 in 10.0 mi SE 9.2 mph 19.6 mph N/A   Scattered Clouds
1:51 PM 82.9 °F 82.4 °F 57.0 °F 41% 30.08 in 10.0 mi SE 15.0 mph 18.4 mph N/A   Scattered Clouds
2:51 PM 82.0 °F 82.0 °F 57.9 °F 44% 30.06 in 10.0 mi SE 13.8 mph 19.6 mph N/A   Scattered Clouds
3:51 PM 82.9 °F 83.2 °F 60.1 °F 46% 30.04 in 10.0 mi ESE 10.4 mph 23.0 mph N/A   Scattered Clouds
4:51 PM 82.9 °F 82.8 °F 59.0 °F 44% 30.02 in 10.0 mi SE 18.4 mph 24.2 mph N/A   Partly Cloudy
5:51 PM 81.0 °F 81.1 °F 57.9 °F 45% 30.02 in 10.0 mi East 16.1 mph - N/A   Partly Cloudy
6:51 PM 79.0 °F - 59.0 °F 50% 30.02 in 10.0 mi ESE 15.0 mph - N/A   Partly Cloudy
7:51 PM 75.9 °F - 60.1 °F 58% 30.03 in 10.0 mi SE 12.7 mph - N/A   Scattered Clouds
8:51 PM 73.9 °F - 62.1 °F 66% 30.04 in 10.0 mi SE 10.4 mph - N/A   Partly Cloudy
9:51 PM 72.0 °F - 62.1 °F 71% 30.04 in 10.0 mi SE 9.2 mph - N/A   Partly Cloudy
10:51 PM 72.0 °F - 63.0 °F 73% 30.05 in 10.0 mi SE 8.1 mph - N/A   Partly Cloudy
11:51 PM 71.1 °F - 64.0 °F 78% 30.06 in 10.0 mi ESE 6.9 mph - N/A   Partly Cloudy